This is the latest recevied weather packets stored in our database for station/object AD8IZ-13. If no packets are shown the sender has not sent any weather packets the latest 10 day(s).
| Time | Temp. | Humidity | Pressure | Rain* | Wind** | Luminosity | Snow |
|---|---|---|---|---|---|---|---|
| 1777409117 | 23.33° C | 64% | 1012.4 hPa | 0 mm | - | 472 W/m² | - |
| 1777408520 | 23.89° C | 63% | 1012.4 hPa | 0 mm | - | 430 W/m² | - |
| 1777407920 | 23.89° C | 62% | 1012.3 hPa | 0 mm | - | 546 W/m² | - |
| 1777407320 | 23.33° C | 64% | 1012.5 hPa | 0 mm | - | 678 W/m² | - |
| 1777406720 | 23.33° C | 65% | 1012.5 hPa | 0 mm | - | 485 W/m² | - |
| 1777406117 | 23.33° C | 65% | 1012.6 hPa | 0 mm | - | 752 W/m² | - |
| 1777405519 | 24.44° C | 64% | 1012.6 hPa | 0 mm | - | 653 W/m² | - |
| 1777404921 | 23.89° C | 65% | 1012.7 hPa | 0 mm | - | 676 W/m² | - |
| 1777404321 | 23.89° C | 64% | 1012.9 hPa | 0 mm | - | 572 W/m² | - |
| 1777403721 | 23.89° C | 65% | 1013 hPa | 0 mm | - | 606 W/m² | - |
| 1777403119 | 23.89° C | 65% | 1013 hPa | 0 mm | - | 758 W/m² | - |
| 1777402520 | 23.89° C | 65% | 1013 hPa | 0 mm | - | 669 W/m² | - |
| 1777401919 | 23.33° C | 68% | 1013.1 hPa | 0 mm | - | 1019 W/m² | - |
| 1777401320 | 22.22° C | 70% | 1013.3 hPa | 0 mm | - | 962 W/m² | - |
| 1777400719 | 22.22° C | 72% | 1013.3 hPa | 0 mm | - | 636 W/m² | - |
| 1777400119 | 21.67° C | 75% | 1013.4 hPa | 0 mm | - | 856 W/m² | - |
| 1777399519 | 21.67° C | 75% | 1013.5 hPa | 0 mm | - | 412 W/m² | - |
| 1777398919 | 21.11° C | 76% | 1013.5 hPa | 0 mm | - | 396 W/m² | - |
| 1777398321 | 20.56° C | 78% | 1013.6 hPa | 0 mm | - | 488 W/m² | - |
| 1777397721 | 20.56° C | 78% | 1013.7 hPa | 0 mm | - | 221 W/m² | - |
| 1777397120 | 20° C | 80% | 1013.7 hPa | 0 mm | - | 575 W/m² | - |
| 1777396517 | 20.56° C | 79% | 1013.7 hPa | 0 mm | - | 195 W/m² | - |
| 1777395921 | 20.56° C | 79% | 1013.6 hPa | 0 mm | - | 128 W/m² | - |
| 1777395321 | 21.11° C | 78% | 1013.6 hPa | 0 mm | - | 233 W/m² | - |
| 1777394722 | 21.11° C | 79% | 1013.7 hPa | 0 mm | - | 651 W/m² | - |
* Rain latest hour (hover to see other rain measurements)
** Current wind speed in m/s (hover to see current wind gust speed)